DW7764 Weather Reports


time (UTC)temp
F
wind
direction
speed
knots
gust
knots
rain 1hr
in
rain 24hr
in
rain mn
in
humidity
%
barometer
mb
20260508074504 60 133 0.9 2.6 0.00 0.00 0.00 77 1018.8
20260508073059 59 131 0.9 2.6 0.00 0.00 0.00 79 1018.8
20260508071553 57 140 0.0 0.0 0.00 0.00 0.00 84 1018.5
20260508070048 55 139 0.0 2.6 0.00 0.00 0.00 88 1018.4
20260508064545 52 131 0.0 0.9 0.00 0.00 0.00 92 1018.4
20260508063045 50 131 0.0 0.0 0.00 0.00 0.00 93 1018.5
20260508061544 49 131 0.0 0.0 0.00 0.00 0.00 93 1018.4
20260508060044 48 131 0.0 0.0 0.00 0.00 0.00 93 1018.3
20260508054603 47 131 0.0 0.0 0.00 0.00 0.00 93 1018.3
20260508053043 47 131 0.0 0.0 0.00 0.00 0.00 92 1018.0
20260508051542 47 131 0.0 0.0 0.00 0.00 0.00 94 1017.8
20260508050041 47 131 0.0 0.0 0.00 0.00 0.00 93 1017.7
20260508044554 47 131 0.0 0.0 0.00 0.00 0.00 93 1017.6
20260508043042 47 131 0.0 0.0 0.00 0.00 0.00 93 1017.6
20260508041549 47 131 0.0 0.0 0.00 0.00 0.00 93 1017.5
20260508040039 47 131 0.0 0.9 0.00 0.00 0.00 94 1017.4
20260508034540 47 131 0.0 0.9 0.00 0.00 0.00 94 1017.4
20260508033038 47 131 0.0 0.9 0.00 0.00 0.00 94 1017.4
20260508031543 47 131 0.0 0.0 0.00 0.00 0.00 95 1017.4
20260508030039 48 131 0.0 0.0 0.00 0.00 0.00 95 1017.5
20260508024529 48 131 0.0 0.0 0.00 0.00 0.00 94 1017.4
20260508023038 48 131 0.0 1.7 0.00 0.00 0.00 95 1017.5
20260508021527 49 131 0.0 0.0 0.00 0.00 0.00 94 1017.6
20260508020021 50 131 0.0 0.0 0.00 0.00 0.00 94 1017.7
20260508014520 50 131 0.0 0.0 0.00 0.00 0.00 94 1017.7
20260508013017 51 131 0.0 0.0 0.00 0.00 0.00 93 1017.9
20260508011516 51 131 0.0 0.0 0.00 0.00 0.00 93 1018.1
20260508010022 52 131 0.0 0.9 0.00 0.00 0.00 93 1018.2
20260508004520 52 131 0.0 0.0 0.00 0.00 0.00 94 1018.3
20260508003014 52 131 0.0 0.0 0.00 0.00 0.00 94 1018.3
20260508001511 52 131 0.0 0.0 0.00 0.00 0.00 94 1018.5
20260508000007 52 131 0.0 0.0 0.00 0.00 0.00 94 1018.6
20260507234506 52 131 0.0 0.0 0.00 0.00 0.00 94 1018.7
20260507233005 53 131 0.0 0.9 0.00 0.00 0.00 94 1018.7
20260507231503 53 131 0.0 0.0 0.00 0.00 0.00 94 1018.7
20260507230001 53 131 0.0 1.7 0.00 0.00 0.00 94 1018.9
20260507224606 53 131 0.0 0.0 0.00 0.00 0.00 94 1019.0
20260507223100 53 131 0.0 0.0 0.00 0.00 0.00 94 1019.2
20260507221556 53 131 0.0 0.9 0.00 0.00 0.00 94 1019.3
20260507220055 54 131 0.0 0.0 0.00 0.00 0.00 93 1019.2
20260507214554 54 131 0.0 0.9 0.00 0.00 0.00 93 1019.3
20260507213054 54 131 0.9 1.7 0.00 0.00 0.00 93 1019.3
20260507211554 55 131 0.0 0.0 0.00 0.00 0.00 92 1019.3
20260507210115 55 131 0.0 0.9 0.00 0.00 0.00 92 1019.2
20260507204557 55 131 0.0 0.0 0.00 0.00 0.00 92 1019.2
20260507203057 55 131 0.0 0.0 0.00 0.00 0.00 91 1019.2
20260507201551 55 131 0.0 0.0 0.00 0.00 0.00 90 1019.1
20260507200103 56 131 0.0 0.0 0.00 0.00 0.00 89 1018.9
20260507194550 56 131 0.0 0.0 0.00 0.00 0.00 88 1018.7
20260507193109 57 131 0.0 0.0 0.00 0.00 0.00 86 1018.4
20260507191556 58 131 0.0 0.0 0.00 0.00 0.00 84 1018.2
20260507190049 59 131 0.0 2.6 0.00 0.00 0.00 81 1018.0
20260507184547 60 119 0.9 2.6 0.00 0.00 0.00 80 1017.7
20260507183057 60 176 0.0 1.7 0.00 0.00 0.00 81 1017.7
20260507181547 60 121 0.9 6.1 0.00 0.00 0.00 79 1017.5
20260507180046 61 121 2.6 6.1 0.00 0.00 0.00 79 1017.4
20260507174545 62 135 1.7 5.2 0.00 0.00 0.00 78 1017.3
20260507173107 62 148 1.7 6.1 0.00 0.00 0.00 75 1017.2
20260507171547 63 205 1.7 7.0 0.00 0.00 0.00 74 1017.1
20260507170048 63 109 2.6 6.1 0.00 0.00 0.00 73 1017.0
20260507164550 63 145 0.9 5.2 0.00 0.00 0.00 71 1017.0
20260507163042 63 217 0.9 5.2 0.00 0.00 0.00 71 1016.9
20260507161547 63 129 2.6 7.0 0.00 0.00 0.00 72 1016.8
20260507160059 63 83 3.5 7.0 0.00 0.00 0.00 71 1016.8
20260507154540 64 167 3.5 9.6 0.00 0.00 0.00 70 1017.0
20260507153039 65 174 2.6 8.7 0.00 0.00 0.00 67 1017.0
20260507151539 65 137 2.6 7.0 0.00 0.00 0.00 66 1016.9
20260507150038 65 158 2.6 7.8 0.00 0.00 0.00 65 1016.9
20260507144545 65 164 1.7 10.4 0.00 0.00 0.00 64 1017.1
20260507143035 65 103 1.7 7.8 0.00 0.00 0.00 66 1017.2
20260507141534 65 128 4.3 7.8 0.00 0.00 0.00 64 1017.3
20260507140035 65 120 2.6 9.6 0.00 0.00 0.00 66 1017.5
20260507134531 65 68 3.5 10.4 0.00 0.00 0.00 65 1017.8
20260507133030 66 88 2.6 13.9 0.00 0.00 0.00 66 1017.8
20260507131531 66 178 3.5 8.7 0.00 0.00 0.00 67 1017.9
20260507130033 66 105 2.6 7.8 0.00 0.00 0.00 68 1017.9
20260507124526 65 128 3.5 12.2 0.00 0.00 0.00 68 1018.2
20260507123032 66 94 3.5 10.4 0.00 0.00 0.00 68 1018.2
20260507121523 66 115 4.3 9.6 0.00 0.00 0.00 68 1018.3
20260507120023 66 232 3.5 11.3 0.00 0.00 0.00 69 1018.3
20260507114521 66 150 2.6 13.0 0.00 0.00 0.00 68 1018.4
20260507113026 65 132 2.6 8.7 0.00 0.00 0.00 70 1018.4
20260507111516 65 81 1.7 10.4 0.00 0.00 0.00 74 1018.5
20260507110014 64 148 3.5 9.6 0.00 0.00 0.00 78 1018.8
20260507104511 62 105 0.0 9.6 0.00 0.00 0.00 94 1018.8
20260507103010 62 106 2.6 7.8 0.00 0.00 0.00 94 1019.0
20260507101515 62 155 1.7 7.8 0.00 0.00 0.00 96 1019.0
20260507100008 62 89 1.7 8.7 0.00 0.00 0.00 97 1019.1
20260507094507 61 108 0.9 7.8 0.00 0.00 0.00 96 1019.2
20260507093009 61 93 3.5 8.7 0.00 0.00 0.00 96 1019.5
20260507091505 60 148 2.6 5.2 0.00 0.00 0.00 96 1019.4
20260507090004 60 133 1.7 4.3 0.00 0.00 0.00 98 1019.1
20260507084601 59 146 0.0 1.7 0.00 0.00 0.00 98 1019.2
20260507083059 59 123 0.9 3.5 0.00 0.00 0.00 99 1019.2
20260507081555 58 293 0.0 0.9 0.00 0.00 0.00 99 1019.4
20260507080052 57 293 0.0 1.7 0.00 0.00 0.00 99 1019.5